Georgetown, TX

3:30 AM CDT on October 01, 2016 (GMT -0500)
Georgetown Municipal

Weather History for KGTU - August, 2014

Change the Weather History Date:

Tuesday, August 26, 2014

  Actual Average Record
Temperature  
Mean Temperature 86 °F -  
Max Temperature 100 °F 92 °F 100 °F (1999)
Min Temperature 73 °F 70 °F 62 °F (1997)
Cooling Degree Days 20    
Growing Degree Days 36 (Base 50)    
Moisture  
Dew Point 66 °F    
Average Humidity 58    
Maximum Humidity 78    
Minimum Humidity 35    
Precipitation  
Precipitation 0.00 in - - ()
Sea Level Pressure  
Sea Level Pressure 29.98 in    
Wind  
Wind Speed 2 mph (East)    
Max Wind Speed 20 mph    
Max Gust Speed 30 mph    
Visibility 10 miles    
Events      
Averages and records for this station are not official NWS values.
T = Trace of Precipitation, MM = Missing Value Source: NWS Daily Summary

Daily Weather History Graph

Daily Weather History Graph

Search for Another Location

Airport or City:

Trip Planner

Search our weather history database for the weather conditions in past years. The results will help you decide how hot, cold, wet, or windy it might be!

Date:

Astronomy

Aug. 26, 2014 Rise Set
Actual Time 7:03 AM CDT 8:00 PM CDT
Civil Twilight 6:38 AM CDT 8:25 PM CDT
Nautical Twilight 6:09 AM CDT 8:54 PM CDT
Astronomical Twilight 5:39 AM CDT 9:24 PM CDT
Moon 7:58 AM CDT (8/26) 8:31 PM CDT (8/26)
Length of Visible Light 13h 46m
Length of Day
12h 57m
New Moon, 1% of the Moon is Illuminated
Aug 26
New Moon
Sep 2
First Quarter
Sep 8
Full
Sep 15
Last Quarter
Sep 24
New

Hourly Weather History & Observations

Time (CDT) Temp. Heat Index Dew Point Humidity Pressure Visibility Wind Dir Wind Speed Gust Speed Precip Events Conditions
12:15 AM 82.4 °F 83.9 °F 64.4 °F 54% 29.96 in 10.0 mi Calm Calm - N/A   Clear
12:35 AM 80.6 °F 82.3 °F 64.4 °F 58% 29.97 in 10.0 mi Calm Calm - N/A   Clear
12:55 AM 78.8 °F - 64.4 °F 61% 29.97 in 10.0 mi Calm Calm - N/A   Clear
1:15 AM 80.6 °F 82.3 °F 64.4 °F 58% 29.98 in 10.0 mi Calm Calm - N/A   Clear
1:35 AM 78.8 °F - 64.4 °F 61% 29.97 in 10.0 mi SSE 3.5 mph - N/A   Clear
1:55 AM 82.4 °F 83.9 °F 64.4 °F 54% 29.97 in 10.0 mi SE 3.5 mph - N/A   Clear
2:15 AM 80.6 °F 82.3 °F 64.4 °F 58% 29.98 in 10.0 mi ESE 3.5 mph - N/A   Clear
2:35 AM 80.6 °F 82.3 °F 64.4 °F 58% 29.96 in 10.0 mi Calm Calm - N/A   Clear
2:55 AM 78.8 °F - 64.4 °F 61% 29.96 in 10.0 mi Calm Calm - N/A   Clear
3:15 AM 78.8 °F - 64.4 °F 61% 29.96 in 10.0 mi Calm Calm - N/A   Clear
3:35 AM 77.0 °F - 64.4 °F 65% 29.97 in 10.0 mi Calm Calm - N/A   Clear
3:55 AM 77.0 °F - 64.4 °F 65% 29.98 in 10.0 mi Calm Calm - N/A   Clear
4:15 AM 75.2 °F - 64.4 °F 69% 29.98 in 10.0 mi Calm Calm - N/A   Clear
4:35 AM 75.2 °F - 64.4 °F 69% 29.98 in 10.0 mi Calm Calm - N/A   Clear
4:55 AM 77.0 °F - 64.4 °F 65% 29.99 in 10.0 mi Calm Calm - N/A   Clear
5:15 AM 77.0 °F - 64.4 °F 65% 30.00 in 10.0 mi Calm Calm - N/A   Clear
5:35 AM 75.2 °F - 64.4 °F 69% 30.00 in 10.0 mi Calm Calm - N/A   Clear
5:55 AM 73.4 °F - 64.4 °F 73% 30.01 in 10.0 mi Calm Calm - N/A   Clear
6:15 AM 75.2 °F - 66.2 °F 73% 30.01 in 10.0 mi Calm Calm - N/A   Clear
6:35 AM 73.4 °F - 66.2 °F 78% 30.01 in 10.0 mi Calm Calm - N/A   Clear
6:49 AM 73.4 °F - 66.2 °F 78% 30.02 in 10.0 mi Calm Calm - N/A   Clear
7:53 AM 75.2 °F - 66.2 °F 73% 30.03 in 10.0 mi Calm Calm - N/A   Clear
8:53 AM 82.4 °F 85.4 °F 68.0 °F 62% 30.02 in 10.0 mi Calm Calm - N/A   Clear
9:53 AM 89.6 °F 92.2 °F 66.2 °F 46% 30.02 in 10.0 mi WNW 6.9 mph - N/A   Clear
10:53 AM 91.4 °F 96.8 °F 69.8 °F 49% 30.03 in 10.0 mi Calm Calm - N/A   Clear
11:53 AM 95.0 °F 99.5 °F 68.0 °F 41% 30.03 in 10.0 mi East 6.9 mph - N/A   Mostly Cloudy
12:50 PM 96.8 °F 100.7 °F 66.2 °F 37% 30.01 in 10.0 mi North - - N/A   Scattered Clouds
1:51 PM 96.8 °F 100.7 °F 66.2 °F 37% 30.00 in 10.0 mi NE 8.1 mph - N/A   Partly Cloudy
2:55 PM 98.6 °F 102.8 °F 66.2 °F 35% 29.96 in 10.0 mi East 8.1 mph 16.1 mph N/A   Partly Cloudy
3:50 PM 95.0 °F 99.5 °F 68.0 °F 41% 29.94 in 8.0 mi NE 19.6 mph 29.9 mph N/A   Scattered Clouds
4:50 PM 93.2 °F 96.2 °F 66.2 °F 41% 29.94 in 10.0 mi East 9.2 mph - N/A   Scattered Clouds
5:50 PM 91.4 °F 95.4 °F 68.0 °F 46% 29.94 in 10.0 mi SE 6.9 mph - N/A   Clear
6:50 PM 91.4 °F 95.4 °F 68.0 °F 46% 29.94 in 10.0 mi East 8.1 mph - N/A   Clear
7:50 PM 89.6 °F 93.4 °F 68.0 °F 49% 29.95 in 10.0 mi ESE 4.6 mph - N/A   Clear
8:49 PM 87.8 °F 92.6 °F 69.8 °F 55% 29.96 in 10.0 mi East 3.5 mph - N/A   Clear
9:50 PM 84.2 °F 88.4 °F 69.8 °F 62% 29.98 in 10.0 mi North 3.5 mph - N/A   Clear
10:15 PM 82.4 °F 85.4 °F 68.0 °F 62% 29.99 in 10.0 mi Calm Calm - N/A   Clear
10:35 PM 82.4 °F 86.3 °F 69.8 °F 66% 30.00 in 10.0 mi Calm Calm - N/A   Clear
10:55 PM 84.2 °F 88.4 °F 69.8 °F 62% 30.01 in 10.0 mi East 4.6 mph - N/A   Clear
11:35 PM 82.4 °F 86.3 °F 69.8 °F 66% 30.02 in 10.0 mi ESE 3.5 mph - N/A   Mostly Cloudy